星链-5786 (STARLINK-5786 )

导读

STARLINK-5786是美国太空探索技术公司(SpaceX)星链(Starlink)卫星互联网项目中的卫星,于2023年3月24日发射升空,归属发射国家美国。它属于星链星座组网卫星,星链项目旨在构建全球卫星互联网星座,为全球多个区域提供高速网络服务,该卫星是星链大规模部署进程中的组成单元。

基本信息
目录编号:
56032
目录名称:
STARLINK-5786
国际标识:
2023-042AY
轨道中心:
EARTH
卫星名称:
星链-5786
卫星全名:
星链-5786 (STARLINK-5786 )
卫星状态:
在轨 (已飞行1179 天)
发射日期:
2023-03-24 UTC
国别 :
美国 (US)
星等 :
--
轨道信息
数据来源 国际轨道数据 AOE轨道数据
星历时间 2026-06-15T04:28:05+0800
4小时前
查看轨道信息
2026-06-13T06:00:00+0800
2天前
查看轨道信息
半长轴 6861.207km 6861.183km
偏心率 0.0000963 0.0001088
轨道倾角 43.002° 43.001°
近地点辐角 269.592° 254.035°
升交点赤经 216.642° 227.577°
平近点角 90.482° 246.037°
近地点 482.409km 482.299km
远地点 483.731km 483.793km
周期 94.267分钟 94.267分钟
每日圈数 15.275731 15.275811
详细信息
固有亮度:
5
最大亮度:
2.5
卫星平台:
Starlink v1.5
覆盖范围:
全球
运营商:
太空探索技术公司
运营商所在国:
美国
制造商(研发单位):
太空探索技术公司
制造商所在国:
美国
使用方式:
暂无
卫星简介
星链(Starlink)计划是由太空探索技术公司(SpaceX)提出的一个巨型低轨卫星互联网星座项目,计划在2019年至2024年间在太空搭建由约1.2万颗卫星组成的“星链”网络,其中1584颗将部署在地球上空550千米处的近地轨道,并从2020年开始工作。该卫星仍在工作。
2D轨道图
3D轨道图
轨道高度分析图
轨道倾角分析图
轨道综合分析图
查看轨道综合分析图